Regional Weather Roundup
Issued by NWS

Home | Current Version | Previous Version | Graphics & Text | Print | Product List | Glossary On
Versions: 1 2 3 4 5 6 7 8 9 10 11 12 13 14 15 16 17 18 19 20 21 22 23 24 25 26 27 28 29 30 31 32 33 34 35 36 37 38 39 40 41 42 43 44 45 46 47 48 49 50
760
ASUS45 KCYS 161410
RWRWY

WYOMING REGIONAL WEATHER ROUNDUP
NATIONAL WEATHER SERVICE CHEYENNE WY
800 AM MDT MON OCT 16 2017

NOTE:  "FAIR" INDICATES FEW OR NO CLOUDS BELOW 12,000 FEET
WITH NO SIGNIFICANT WEATHER AND/OR OBSTRUCTIONS TO VISIBILITY.

WYZ001-161500-
YELLOWSTONE NATIONAL PARK

CITY           SKY/WX    TMP DP  RH WIND       PRES   REMARKS
LK YELLOWSTONE   N/A     19  18  95 NW3       30.43F
W YELLOWSTONE  NOT AVBL

$$
WYZ002>013-054>058-071-098>099-161500-
NORTHERN WYOMING

CITY           SKY/WX    TMP DP  RH WIND       PRES   REMARKS
JACKSON        FAIR      20  18  92 NE3       30.45S
CODY           FAIR      54  12  18 W10G17    30.23F
GREYBULL       FAIR      29  27  92 S3        30.23S
WORLAND        FAIR      29  27  92 S6        30.23S WCI  23
SHERIDAN       FAIR      31  25  78 CALM      30.13S
BUFFALO        FAIR      47  17  30 W12       30.17R
GILLETTE       FAIR      44  28  53 S5        30.14F
HULETT         FAIR      37  28  70 SW8       30.14F WCI  31
NEWCASTLE      FAIR      32  27  80 N5        30.20R WCI  27

$$
WYZ014>020-022>026-101>103-161500-
CENTRAL WYOMING

CITY           SKY/WX    TMP DP  RH WIND       PRES   REMARKS
BIG PINEY      FAIR      16  13  88 CALM      30.43S
PINEDALE       FAIR      18  14  86 NW6       30.43S WCI   9
DUBOIS         FAIR      36   9  32 NW21      30.33S WCI  24
LANDER         FAIR      40  27  59 CALM      30.27S
RIVERTON       FAIR      39  27  62 W10       30.28R WCI  32
CASPER         FAIR      45  17  32 S17       30.26R
DOUGLAS        FAIR      28  23  81 SE3       30.22F

$$
WYZ021-027>030-104>119-161500-
SOUTHERN WYOMING

CITY           SKY/WX    TMP DP  RH WIND       PRES   REMARKS
EVANSTON       FAIR      35  12  38 S7        30.43R WCI  29
FORT BRIDGER   FAIR      40   2  20 SW12      30.45R WCI  33
ROCK SPRINGS   FAIR      33  12  41 CALM      30.42S
DIXON          FAIR      25  19  77 CALM      30.48S
RAWLINS        FAIR      43  12  28 CALM      30.40R
SARATOGA       FAIR      34  16  47 SE8       30.42S WCI  27
LARAMIE        FAIR      45  10  24 SW24      30.35F
CHEYENNE       FAIR      55  14  19 SW12      30.31S
TORRINGTON     FAIR      28  23  81 CALM      30.23S
PINE BLUFFS    FAIR      32  23  69 MISG      30.29S

$$




USA.gov is the U.S. government's official web portal to all federal, state and local government web resources and services.